This is the latest recevied weather packets stored in our database for station/object F4GQK-13. If no packets are shown the sender has not sent any weather packets the latest 1 day(s).
| Time | Temp. | Humidity | Pressure | Rain* | Wind** | Luminosity | Snow |
|---|---|---|---|---|---|---|---|
| 1778077205 | 13.89° C | 77% | 1011.2 hPa | 0 mm | - | 237 W/m² | - |
| 1778076606 | 13.89° C | 73% | 1011.2 hPa | 0 mm | - | 217 W/m² | - |
| 1778074206 | 14.44° C | 74% | 1011 hPa | 0 mm | - | 493 W/m² | - |
| 1778073605 | 13.89° C | 75% | 1011.1 hPa | 0 mm | - | 330 W/m² | - |
| 1778073305 | 13.89° C | 75% | 1011.4 hPa | 0 mm | - | 312 W/m² | - |
| 1778072705 | 13.33° C | 76% | 1011.3 hPa | 0 mm | - | 225 W/m² | - |
| 1778071506 | 14.44° C | 75% | 1011 hPa | 0 mm | - | 268 W/m² | - |
| 1778071205 | 13.89° C | 76% | 1011 hPa | 0 mm | - | 480 W/m² | - |
| 1778070606 | 13.89° C | 77% | 1011.1 hPa | 0 mm | - | 191 W/m² | - |
| 1778067305 | 13.33° C | 78% | 1011 hPa | 0 mm | - | 439 W/m² | - |
| 1778066705 | 12.78° C | 82% | 1011 hPa | 0 mm | - | 462 W/m² | - |
| 1778066404 | 12.78° C | 83% | 1010.8 hPa | 0 mm | - | 347 W/m² | - |
| 1778066105 | 12.78° C | 83% | 1010.8 hPa | 0 mm | - | 221 W/m² | - |
| 1778065205 | 12.78° C | 84% | 1010.8 hPa | 0 mm | - | 282 W/m² | - |
| 1778063105 | 12.22° C | 86% | 1010.6 hPa | 0 mm | - | 346 W/m² | - |
| 1778062806 | 11.67° C | 87% | 1010.7 hPa | 0 mm | - | 396 W/m² | - |
| 1778062206 | 11.67° C | 87% | 1010.6 hPa | 0 mm | - | 402 W/m² | - |
| 1778061915 | 11.67° C | 87% | 1010.5 hPa | 0 mm | - | 338 W/m² | - |
| 1778061305 | 11.11° C | 88% | 1010.5 hPa | 0 mm | - | 285 W/m² | - |
| 1778060105 | 11.11° C | 89% | 1010.6 hPa | 0 mm | - | 304 W/m² | - |
| 1778059505 | 11.11° C | 90% | 1010.4 hPa | 0 mm | - | 255 W/m² | - |
| 1778058605 | 11.11° C | 92% | 1010.1 hPa | 0 mm | - | 308 W/m² | - |
| 1778058305 | 10.56° C | 92% | 1010.2 hPa | 0 mm | - | 359 W/m² | - |
| 1778057704 | 10° C | 92% | 1010.3 hPa | 0 mm | - | 283 W/m² | - |
| 1778057405 | 10° C | 93% | 1010.2 hPa | 0 mm | - | 256 W/m² | - |
* Rain latest hour (hover to see other rain measurements)
** Current wind speed in m/s (hover to see current wind gust speed)